الصفحة الرئيسية
صور الأقمار الصناعية توقعات الطقس لمدة 15 يوممناخالتوقعات البحرية إعصار برق مطارأسئلة وأجوبة النشرة الإخبارية حول
طقس : أوروبا أفريقيا أمريكا الشمالية أمريكا الجنوبية آسيا أستراليا-أوقيانوسيا آخرون
لغات جهة اتصال

مدينة همدان, إيران

دائرة عرض: 34-52-05N, خط طول: 048-33-08E, ارتفاع: 1757 m


METAR: OIHH 310754Z 00000KT CAVOK 11/01 Q1019
TAF: فقد

زمن: 11:46 (08:16 UTC)

مراقبة الطقس الحالي

تاريخ و وقت الإصدار 22 دقيقة قبل الساعة 07:54 UTC
ريح أي الرياح هادئة
درجة الحرارة 11°C
الرطوبة 50%
ضغط 1019 hPa
الرؤية 10 كم أو أكثر
الغيوم لا تقل 1500 م وليس السحاب الأسود

تغيير وحدة
المعلومات الواردة في هذا الموقع يخضع إخلاء
طقس : أوروبا أفريقيا أمريكا الشمالية أمريكا الجنوبية آسيا أستراليا-أوقيانوسيا آخرون
صور الأقمار الصناعية توقعات الطقس لمدة 15 يوممناخالتوقعات البحرية إعصار برق مطارأسئلة وأجوبة لغات جهة اتصال النشرة الإخبارية حول